Location: ???????
(60.6554°N, 46.5784°E)
Time: 07:20:30
(UTC+00:00)

Daily predictions for brighter satellites

Satellite Brightness Start Highest point End
(mag) Time Altitude Azimuth Time Altitude Azimuth Time Altitude Azimuth
Cosmos 1867 3.6 12:32:07 10° WNW 12:37:37 77° NNE 12:43:06 10° ESE
Meteor 1-26 Rocket 4.3 12:33:59 10° S 12:39:36 63° E 12:45:07 10° NNE
Cosmos 1666 3.8 12:37:26 10° N 12:40:33 24° ENE 12:43:37 10° ESE
Cosmos 2278 Rocket 2.7 12:40:30 10° NW 12:46:09 67° WSW 12:51:46 10° SSE
CZ-4B R/B 3.2 12:42:21 10° SSE 12:47:44 72° ENE 12:53:15 10° NNW
Cosmos 1689 Rocket 3.8 12:47:14 10° NE 12:49:26 18° E 12:51:36 10° SE
IRS-1C Rocket 4.4 12:46:01 10° SE 12:50:59 44° ENE 12:55:59 10° NNW
Cosmos 2360 Rocket 2.3 12:46:17 10° SSW 12:51:58 79° SE 12:57:41 10° NE
Cosmos 1328 Rocket 4.4 12:48:13 10° SW 12:52:24 47° WNW 12:56:36 10° N
Cosmos 2322 4.0 12:47:00 10° SSW 12:52:36 58° ESE 12:58:11 10° NE
Cosmos 1606 3.0 12:51:19 10° SSW 12:55:08 69° WNW 12:59:00 10° N
Cosmos 1656 Rocket 4.4 12:50:44 10° NW 12:55:37 32° NNE 13:00:31 10° E
Cosmos 2369 Rocket 2.6 12:50:38 10° NW 12:56:00 42° NNE 13:01:21 10° E
Aureole 2 Rocket 4.4 12:54:51 10° N 12:56:04 11° NNE 12:57:16 10° NE
NOSS 8 (H) 4.4 12:53:10 10° WSW 12:56:15 77° SSE 12:59:49 10° ENE
COSMOS 2455 3.0 12:50:48 10° WSW 12:56:52 80° NW 13:02:56 10° NE
NOSS 2-2 (D) 3.6 12:53:24 10° WSW 12:57:19 80° SSE 13:02:19 10° ENE
Cosmos 1782 Rocket 4.5 12:54:34 10° N 12:58:16 26° ENE 13:01:56 10° ESE
Cosmos 1980 Rocket 3.0 12:53:16 10° W 12:58:39 40° NNW 13:04:02 10° NE
Cosmos 1151 Rocket 4.1 12:58:14 10° SW 13:02:24 42° WNW 13:06:34 10° N
YAOGAN 6 4.2 13:00:52 10° E 13:03:10 16° NE 13:05:30 10° NNE
Cosmos 1048 Rocket 4.3 13:00:57 10° SW 13:06:21 75° NW 13:11:45 10° NNE
Cosmos 1933 4.1 13:03:21 10° SSW 13:07:16 51° WNW 13:11:14 10° N
NOSS 3-1 (C) 3.8 13:01:37 10° WNW 13:08:16 78° NNE 13:16:12 10° ESE
Cosmos 1269 Rocket 4.1 13:05:16 10° SSW 13:10:33 74° ESE 13:15:53 10° NE
Helios 1A Rocket 2.9 13:06:59 10° SSE 13:11:05 86° ENE 13:15:11 10° NNW
NOSS 2-3 (E) 4.4 13:05:54 10° WNW 13:11:18 70° N 13:18:19 10° E
SL-16 R/B 3.9 13:08:56 10° SE 13:11:43 14° E 13:14:00 11° ENE
Okean 2 Rocket 4.3 13:08:47 10° N 13:12:13 21° NE 13:15:39 10° ESE
Feng Yun 1-1 Rocket 4.3 13:07:35 10° SE 13:12:51 56° ENE 13:18:13 10° NNW
CORIOLIS 4.4 13:07:43 10° SE 13:12:57 49° ENE 13:18:12 10° NNW
Cosmos 1862 Rocket 4.3 13:10:09 10° SSE 13:14:04 33° E 13:18:03 10° NNE
NOSS 8 (F) 4.4 13:11:51 10° WSW 13:14:58 73° NNW 13:17:59 14° ENE
RESURS DK-1 3.0 13:12:12 10° SSW 13:16:06 42° ESE 13:19:25 14° NE
SMAP 3.2 13:12:34 10° SE 13:17:05 52° ENE 13:21:38 10° NNW
Sich 1 Rocket 4.4 13:13:38 10° N 13:17:31 29° ENE 13:21:22 10° ESE
SAR-Lupe-1 4.4 13:13:58 10° NNE 13:17:33 66° WNW 13:21:07 10° SSW
Cosmos 1743 3.7 13:14:27 10° N 13:17:47 26° ENE 13:21:05 10° ESE
Cosmos 2237 Rocket 3.2 13:13:43 10° SSE 13:18:35 30° ESE 13:22:46 13° NE
Cosmos 1536 2.8 13:14:52 10° N 13:18:53 62° ENE 13:22:52 10° SSE
USA 267 4.1 13:12:37 10° SE 13:18:59 52° SSW 13:25:22 10° W
USA 229 DEB 3.8 13:12:12 10° WNW 13:19:13 81° NNE 13:26:38 10° ESE
USA 229 3.8 13:12:19 10° WNW 13:19:19 81° NNE 13:26:43 10° ESE
Cosmos 1943 Rocket 2.3 13:13:43 10° NW 13:19:19 54° NE 13:24:50 10° ESE
Landsat 5 3.4 13:15:23 10° NNE 13:19:22 87° WNW 13:23:29 10° SSW
Radarsat Rocket 4.1 13:13:43 10° SSE 13:19:37 82° WSW 13:25:33 10° NNW
Cosmos 1939 Rocket 4.5 13:20:03 14° NE 13:20:22 14° NE 13:22:27 10° NNE
Tsikada Rocket 4.4 13:14:34 10° SSW 13:20:56 68° WNW 13:27:17 10° NNE
Cosmos 2322 Rocket 2.7 13:15:42 10° WSW 13:21:16 56° NW 13:26:31 12° NE
NOSS 2-3 (D) 4.4 13:16:58 10° WNW 13:22:22 70° N 13:29:25 10° E
SL-08 R/B 3.8 13:17:34 10° NNE 13:22:29 66° WNW 13:27:17 10° SSW
Meteor 2-6 Rocket 4.2 13:18:19 10° S 13:23:38 62° E 13:29:06 10° NNE
NOSS 3-1 (A) 3.8 13:17:56 10° WNW 13:24:33 76° NNE 13:32:27 10° E
Cosmos 2219 Rocket 2.4 13:19:24 10° SSW 13:24:56 60° ESE 13:29:55 13° NE
Cosmos 1697 Rocket 3.8 13:20:25 10° WNW 13:25:24 31° NNW 13:29:38 13° NE
Cosmos 2333 Rocket 2.4 13:20:45 10° SSW 13:26:25 62° ESE 13:31:29 13° NE
NOSS 3-4 (A) 3.7 13:20:46 10° SW 13:26:51 68° SE 13:32:32 15° ENE
NOSS 3-4 (C) 3.7 13:20:52 10° SW 13:26:57 67° SE 13:32:37 15° ENE
Cosmos 1707 Rocket 3.6 13:24:23 10° S 13:28:51 75° E 13:33:20 10° NNE
CZ-4B R/B 1.4 13:25:31 10° NNE 13:29:04 70° ESE 13:32:32 10° S
ALOS 3.0 13:24:42 10° S 13:29:18 58° WSW 13:33:57 10° NNW
Lacrosse 5 rocket 2.7 13:26:57 10° SSW 13:30:36 28° SSE 13:33:38 13° E
SL-16 R/B 2.8 13:26:57 10° WSW 13:32:28 48° NNW 13:37:21 13° NE
Cosmos 1500 3.4 13:28:49 10° NNW 13:32:35 71° W 13:36:20 10° S
SL-4 R/B 3.9 13:31:24 10° SW 13:34:15 21° S 13:37:16 10° ESE
Exosat Rocket 4.2 13:30:12 10° S 13:34:48 38° ESE 13:38:37 15° NE
NOSS 2-2 (C) 3.6 13:31:07 10° WSW 13:35:09 79° NNW 13:39:03 17° ENE
Aureole 1 Rocket 4.2 13:33:10 10° SE 13:35:14 16° E 13:35:36 16° E
Cosmos 292 Rocket 4.3 13:30:24 10° NW 13:35:16 66° WSW 13:40:05 10° SSE
Okean O Rocket 2.3 13:32:53 10° S 13:37:11 59° WSW 13:41:31 10° NNW
Cosmos 1812 3.0 13:34:11 10° S 13:37:55 48° E 13:41:17 12° NNE
Envisat 3.2 13:34:00 10° SE 13:38:53 49° ENE 13:43:47 10° NNW
Cosmos 2251 Rocket 3.8 13:35:35 10° S 13:40:40 48° ESE 13:44:42 16° NE
Cosmos 1908 Rocket 3.5 13:36:56 10° NNW 13:41:22 72° ENE 13:45:44 10° SSE
CSL-04 Rocket 4.1 13:39:57 10° ESE 13:44:44 36° NE 13:49:35 10° NNW
Cosmos 2242 Rocket 4.1 13:40:58 10° SSE 13:45:15 41° E 13:49:08 12° NNE
Cosmos 1782 3.6 13:43:50 10° SSW 13:47:43 50° WNW 13:51:37 10° N
Okean 1-7 4.1 13:44:42 10° SE 13:48:20 26° E 13:50:04 20° NE
Cosmos 2228 Rocket 4.5 13:44:29 10° SW 13:48:47 38° WNW 13:53:05 10° N
Cosmos 1300 Rocket 4.4 13:45:59 10° N 13:49:43 27° ENE 13:53:25 10° ESE
H-2A R/B 3.4 13:46:07 10° N 13:49:51 34° WNW 13:53:34 10° WSW
COSMO-SKYMED 1 4.3 13:50:55 15° ESE 13:50:55 15° ESE 13:52:37 10° SE
Cosmos 405 Rocket 3.5 13:46:57 10° N 13:50:09 26° ENE 13:52:00 18° ESE
Cosmos 1980 4.1 13:45:01 10° S 13:50:23 46° ESE 13:54:13 19° NE
Cosmos 2297 4.2 13:49:03 10° NW 13:54:43 64° WSW 14:00:19 10° SSE
NOSS 2-2 (E) 3.8 13:51:37 10° W 13:55:48 70° NNW 13:59:14 22° ENE
SL-16 R/B 3.8 13:50:27 10° NNE 13:55:56 35° NW 14:01:25 10° WSW
S3M 4.3 13:51:49 10° N 13:57:44 42° ENE 14:03:34 10° SE
NOSS 2-3 (C) 4.5 13:53:55 10° WNW 13:59:34 78° NNE 14:06:06 13° ESE
Cosmos 1733 Rocket 4.4 13:56:52 10° NNW 14:01:02 43° W 14:05:12 10° SSW
Meteor 1-10 Rocket 4.2 13:55:50 10° SSW 14:01:27 88° WNW 14:07:13 10° NNE
YAOGAN 1 3.1 13:57:54 10° SE 14:01:52 36° ENE 14:05:51 10° N
Cosmos 2263 4.3 13:56:13 10° NW 14:01:59 62° NE 14:07:45 10° ESE
Cosmos 1315 Rocket 3.7 13:58:13 10° SW 14:02:10 49° WNW 14:06:11 10° N
Okean-O 2.5 13:57:57 10° SSE 14:02:22 69° ENE 14:06:49 10° NNW
Cosmos 1441 Rocket 3.1 13:58:30 10° NNW 14:02:22 89° ENE 14:06:10 10° SSE
NOAA 12 4.0 13:57:20 10° SSE 14:02:37 76° ENE 14:07:54 10° NNW
ARGOS 4.5 14:03:29 19° NE 14:03:46 19° NE 14:07:28 10° N
ATLAS 2AS CENTAUR R/B 3.1 13:56:34 10° WSW 14:04:40 87° NNW 14:10:19 21° ENE
CZ-4 R/B 1.6 14:01:30 10° SE 14:05:08 39° ENE 14:08:45 10° N
Meteor 1-28 Rocket 4.1 14:01:44 10° N 14:05:23 48° WNW 14:09:02 10° SW
Nadezhda 4 Rocket 4.0 13:59:08 10° S 14:05:25 72° E 14:11:41 10° NNE
OPS 8737 4.4 14:02:38 10° WNW 14:05:32 51° N 14:06:22 37° NE
CSL-04 Debris 4.4 14:01:04 10° SE 14:06:15 47° ENE 14:11:25 10° NNW
Cosmos 921 Rocket 3.4 14:02:01 10° NNW 14:06:15 65° WSW 14:10:33 10° SSE
H-2A R/B 3.4 14:08:10 19° NE 14:08:10 19° NE 14:11:04 10° N
Cosmos 1553 Rocket 4.1 14:02:22 10° N 14:08:39 57° ENE 14:14:58 10° SSE
Cosmos 1570 Rocket 4.5 14:05:21 10° NNW 14:10:19 40° NE 14:13:05 23° E
H-2A R/B 2.9 14:07:51 10° S 14:11:32 72° WSW 14:15:15 10° NNW
SeaSat 1 3.1 14:10:21 25° ENE 14:12:22 36° NNE 14:16:51 10° NW
Cosmos 1975 2.9 14:08:48 10° N 14:12:43 50° ENE 14:16:38 10° SE
NOSS 0 Rocket 4.0 14:08:27 10° SSW 14:14:37 66° SE 14:18:42 23° NE
Meteor 1-27 Rocket 3.8 14:10:11 10° S 14:16:01 81° ESE 14:21:59 10° NNE
Cosmos 1666 3.3 14:12:45 10° NNW 14:16:28 57° W 14:20:08 10° S
Lacrosse 4 Rocket 1.8 14:13:15 10° NW 14:17:15 44° NNE 14:18:32 33° ENE
COSMOS 2428 2.8 14:13:36 10° SW 14:19:19 79° NW 14:23:12 22° NE
Meteor 2-9 Rocket 4.3 14:15:07 10° NNW 14:21:00 63° ENE 14:26:46 10° SSE
Cosmos 1689 Rocket 2.8 14:19:10 19° N 14:21:06 52° WNW 14:24:03 10° SW
Ariane Rocket 3.6 14:20:26 27° E 14:22:11 34° NE 14:26:43 10° N
USA 215 4.1 14:19:56 22° E 14:23:24 35° SE 14:29:19 10° SSW
Cosmos 1763 Rocket 3.6 14:18:42 10° NNW 14:23:39 49° NE 14:26:21 25° ESE
Cosmos 2151 Rocket 3.8 14:19:55 10° N 14:24:10 43° ENE 14:28:23 10° SE
Cosmos 2026 Rocket 4.0 14:20:46 10° SSE 14:26:37 53° E 14:32:32 10° NNE
Aureole 3 Rocket 4.2 14:24:24 10° N 14:25:31 19° N 14:25:31 19° N
Aureole 2 Rocket 4.0 14:28:13 10° NNW 14:29:46 20° N 14:29:46 20° N
PSLV R/B 3.8 14:29:02 22° NNE 14:31:44 84° ESE 14:35:52 10° SSW
Cosmos 2344 4.2 14:23:11 10° WNW 14:31:45 86° SSW 14:43:29 10° ESE
NOAA 11 4.2 14:27:42 10° SE 14:33:02 55° ENE 14:38:24 10° NNW
OPS 0252 4.5 14:30:06 10° WSW 14:33:27 80° SSE 14:33:41 71° E
COBE Rocket 3.7 14:31:15 18° NNE 14:34:43 72° ESE 14:39:25 10° S
YAOGAN 6 2.4 14:32:33 10° SSE 14:36:08 82° ENE 14:39:49 10° NNW
Cosmos 2360 Rocket 3.1 14:31:03 10° W 14:36:28 42° NNW 14:39:45 22° NNE
Cosmos 1782 Rocket 3.9 14:32:13 10° NNW 14:36:35 67° W 14:40:53 10° S
Cosmos 2322 4.3 14:31:23 10° WSW 14:36:57 52° NW 14:40:22 23° NNE
Cosmos 1263 4.1 14:34:56 10° S 14:37:59 86° ESE 14:38:41 53° NNE
SKYMED 2 4.5 14:39:34 30° SE 14:39:34 30° SE 14:42:32 10° SSE
Cosmos 192 4.4 14:34:03 10° NNW 14:38:58 55° NE 14:40:53 34° ESE
Cosmos 1656 Rocket 3.5 14:34:38 10° NW 14:40:05 67° NE 14:43:09 26° ESE
Cosmos 2369 Rocket 2.3 14:34:51 10° NW 14:40:30 79° SW 14:46:10 10° SSE
Cosmos 1417 Rocket 4.3 14:34:30 10° NNW 14:40:41 79° ENE 14:46:51 10° SSE
COSMOS 2455 3.4 14:37:37 10° W 14:43:28 48° N 14:46:05 30° NE
Cosmos 1190 Rocket 4.4 14:38:51 10° S 14:43:41 41° ESE 14:44:19 39° E
Cosmos 1980 Rocket 3.4 14:39:04 10° WNW 14:44:03 29° N 14:45:53 25° NNE
Cosmos 2315 Rocket 4.2 14:38:14 10° N 14:44:21 45° ENE 14:48:40 19° SE
Meteor 1-18 Rocket 4.3 14:40:46 10° S 14:46:12 51° E 14:48:46 29° NE
Cosmos 614 Rocket 4.1 14:42:54 10° S 14:47:46 48° ESE 14:48:38 43° E
NOSS 2-2 (D) 3.9 14:43:54 10° W 14:48:10 64° N 14:49:44 42° ENE
Okean 2 Rocket 3.0 14:46:28 10° NNW 14:50:59 87° E 14:55:30 10° SSE
Cosmos 1862 Rocket 4.4 14:47:33 10° SW 14:51:50 49° WNW 14:55:37 13° N
Cosmos 1743 3.5 14:50:03 10° NNW 14:53:51 54° W 14:57:38 10° S
RESURS DK-1 3.0 14:50:05 10° WSW 14:54:08 51° NW 14:55:18 38° NNE
Cosmos 841 Rocket 3.6 14:49:10 10° NNW 14:54:14 51° NE 14:55:01 46° ENE
SL-16 R/B 2.4 14:49:07 10° SSW 14:54:36 51° ESE 14:55:54 43° ENE
Cosmos 1939 Rocket 3.6 14:55:57 36° N 14:55:57 36° N 14:58:28 10° N
Cosmos 1703 Rocket 3.5 14:51:00 10° SSW 14:55:30 89° ESE 14:57:44 30° NNE
Sich 1 Rocket 4.1 14:51:41 10° NNW 14:56:03 59° W 15:00:21 10° S
CZ-2D R/B 4.3 15:00:20 32° N 15:00:20 32° N 15:02:30 10° NNW
NOSS 3-1 (C) 4.3 14:52:24 10° WNW 14:59:20 65° SW 15:07:25 10° SE
CZ-4B R/B 3.9 14:58:36 11° N 15:01:05 20° NW 15:03:43 10° WSW
Meteor 2-8 Rocket 4.4 14:55:10 10° NNW 15:01:10 57° ENE 15:05:41 18° SE
Cosmos 2237 Rocket 2.2 14:56:28 10° SW 15:02:11 85° NW 15:04:36 37° NE
Cosmos 1943 Rocket 2.9 14:57:40 10° NW 15:03:11 55° WSW 15:08:38 10° SSE
Cosmos 2221 Rocket 4.4 14:59:05 10° S 15:01:55 35° SSE 15:01:55 35° SSE
Cosmos 1627 Rocket 4.4 14:57:39 10° S 15:03:48 87° E 15:10:02 10° NNE
Cosmos 2195 Rocket 4.5 14:58:11 10° SSW 15:04:29 88° WNW 15:10:52 10° NNE
Cosmos 2322 Rocket 3.4 15:01:24 10° WNW 15:06:25 31° NNW 15:08:20 26° NNE
Cosmos 540 Rocket 3.5 15:03:14 10° NNW 15:08:16 53° NE 15:08:21 53° NE
Cosmos 2219 Rocket 2.8 15:03:36 10° WSW 15:09:06 51° NW 15:11:38 30° NNE
Lacrosse 5 rocket 1.7 15:05:16 10° WSW 15:09:17 49° S 15:09:17 49° S
USA 229 DEB 4.4 15:03:13 10° WNW 15:10:09 58° SW 15:17:24 10° SSE
USA 229 4.3 15:03:19 10° WNW 15:10:15 58° SW 15:17:29 10° SSE
Cosmos 1697 Rocket 3.6 15:05:50 10° NW 15:10:52 32° NNE 15:11:22 31° NNE
Cosmos 2333 Rocket 2.9 15:05:18 10° WSW 15:10:57 51° NNW 15:13:30 30° NNE
SL-4 R/B 4.0 15:10:14 10° WSW 15:13:02 19° SSW 15:13:54 18° S
Cosmos 1140 Rocket 3.6 15:08:58 10° S 15:13:34 51° SE 15:13:34 51° SE
GENESIS II 4.4 15:11:08 10° WNW 15:15:17 73° SW 15:15:25 72° SSW
NOSS 3-1 (A) 4.1 15:08:47 10° WNW 15:15:43 69° SW 15:21:29 21° SE
Cosmos 1092 Rocket 4.3 15:11:09 10° SSW 15:17:24 68° WNW 15:23:38 10° NNE
SL-16 R/B 3.4 15:12:48 10° WNW 15:17:48 30° N 15:19:13 27° NNE
NOSS 3-4 (A) 3.6 15:11:33 10° W 15:17:51 74° NNW 15:19:58 46° ENE
NOSS 3-4 (C) 3.6 15:11:40 10° W 15:17:58 74° N 15:20:04 46° ENE
Envisat 4.2 15:13:14 10° SSW 15:18:03 42° W 15:22:55 10° NNW
Cosmos 468 Rocket 4.0 15:12:55 10° NW 15:18:07 78° WSW 15:20:56 28° SSE
Aureole 1 Rocket 3.2 15:15:42 10° SW 15:18:15 52° WSW 15:18:15 52° WSW
Meteor 2-13 Rocket 4.4 15:13:55 10° S 15:19:52 61° E 15:21:47 42° NE
Cosmos 1656 4.4 15:15:09 10° NW 15:20:01 36° NNE 15:20:01 36° NNE
Cosmos 1655 Rocket 3.9 15:14:17 10° S 15:20:29 63° E 15:23:51 28° NNE
Okean 1 3.6 15:17:43 10° SSW 15:21:03 60° SSW 15:21:03 60° SSW
Cosmos 2251 Rocket 4.2 15:17:51 10° WSW 15:23:01 50° NW 15:25:11 31° NNE
Meteor 1-15 Rocket 4.1 15:18:38 10° NNW 15:24:16 63° ENE 15:24:32 62° E
Meteor 2-4 Rocket 4.2 15:18:42 10° S 15:22:53 42° SE 15:22:53 42° SE
CSL-04 Rocket 3.9 15:19:35 10° S 15:24:51 66° WSW 15:30:13 10° NNW
Okean 1-7 3.4 15:21:15 10° SSW 15:25:36 62° WNW 15:26:57 41° N
NOSS 2-2 (C) 3.9 15:21:44 10° WNW 15:26:08 66° N 15:26:27 64° NNE
Cosmos 405 Rocket 3.4 15:22:47 10° NNW 15:26:23 50° W 15:27:20 38° SW
COSMO-SKYMED 1 3.2 15:28:07 45° S 15:28:07 45° S 15:31:10 10° SSW
Cosmos 1300 Rocket 3.9 15:23:34 10° NNW 15:27:52 62° W 15:32:07 10° S
Cosmos 407 Rocket 3.4 15:22:48 10° SSW 15:28:03 80° ESE 15:28:32 72° ENE
Cosmos 1980 4.0 15:28:49 10° WSW 15:34:26 61° NW 15:36:04 44° NNE
Exosat Rocket 4.1 15:31:12 10° WSW 15:36:06 54° NW 15:37:43 39° NNE
Meteor 1-19 Rocket 4.0 15:30:40 10° S 15:36:07 80° ESE 15:36:32 74° NE
YAOGAN 1 3.5 15:33:43 10° S 15:37:55 48° W 15:42:09 10° NNW
Cosmos 2208 Rocket 4.0 15:32:56 10° NW 15:38:25 87° WSW 15:39:10 68° SSE
CZ-4 R/B 2.8 15:36:41 10° SSW 15:40:15 35° W 15:43:49 10° NNW
Cosmos 1814 Rocket 3.9 15:36:47 10° NNW 15:41:48 79° N 15:41:48 79° N
ARGOS 4.0 15:45:00 37° N 15:45:00 37° N 15:48:23 10° NNW
S3M 4.5 15:37:21 10° NNW 15:43:28 59° W 15:49:28 10° S
H-2A R/B 3.3 15:48:47 29° N 15:48:47 29° N 15:51:14 10° NNW
NOSS 2-2 (E) 4.1 15:42:11 10° WNW 15:46:37 71° N 15:46:37 71° N
SeaSat 1 2.5 15:50:09 71° NW 15:50:09 71° NW 15:54:34 10° NW
Cosmos 1570 Rocket 4.2 15:47:41 10° NW 15:52:54 66° WSW 15:53:32 60° SSW
Meteor 2-15 4.4 15:48:32 10° NNW 15:53:59 66° NNE 15:53:59 66° NNE
Lacrosse 4 Rocket 2.6 15:52:00 10° NW 15:54:52 41° WNW 15:54:52 41° WNW
ATLAS 2AS CENTAUR R/B 3.0 15:48:12 10° W 15:56:16 72° N 15:57:45 59° ENE
Cosmos 2266 Rocket 4.0 15:50:01 10° S 15:55:37 66° SSE 15:55:37 66° SSE
Ariane Rocket 3.2 16:00:38 64° SW 16:00:56 65° WSW 16:06:00 10° NNW
NOSS 0 Rocket 4.5 15:55:16 10° WSW 16:01:23 53° NNW 16:02:42 45° N
Lacrosse 5 4.4 15:59:42 10° S 15:59:45 10° S 15:59:45 10° S
COSMOS 2428 3.7 15:59:05 10° W 16:04:21 37° NNW 16:05:12 35° N
Cosmos 1763 Rocket 4.2 16:00:40 10° NW 16:05:33 48° WSW 16:06:26 43° SW
MOS 1 4.3 16:06:10 79° WSW 16:06:15 80° WSW 16:12:00 10° NNW
USA 215 3.3 16:07:17 59° SSE 16:07:17 59° SSE 16:13:45 10° WSW
CZ-4C R/B 4.4 16:03:53 10° S 16:04:09 11° S 16:04:09 11° S
Cosmos 2360 Rocket 3.6 16:16:50 10° WNW 16:21:31 29° N 16:21:31 29° N
Cosmos 2369 Rocket 4.3 16:19:29 10° NW 16:23:49 23° WSW 16:28:09 10° SSW
Cosmos 1980 Rocket 3.5 16:24:05 10° NW 16:27:39 32° NNW 16:27:39 32° NNW
COSMOS 2455 3.6 16:24:29 10° WNW 16:29:13 45° NNW 16:29:13 45° NNW
SL-16 R/B 2.9 16:33:09 10° WSW 16:37:48 50° WNW 16:37:48 50° WNW
Cosmos 2237 Rocket 3.4 16:41:39 10° W 16:46:26 37° NW 16:46:26 37° NW
Lacrosse 5 rocket 4.2 16:44:15 10° W 16:44:56 14° W 16:44:56 14° W
Cosmos 2322 Rocket 3.9 16:46:54 10° NW 16:50:08 26° NNW 16:50:08 26° NNW
Cosmos 2219 Rocket 3.8 16:49:16 10° WNW 16:53:21 29° NNW 16:53:21 29° NNW
Cosmos 1697 Rocket 4.2 16:50:16 10° NW 16:53:06 30° NNW 16:53:06 30° NNW
Cosmos 2333 Rocket 3.8 16:51:17 10° WNW 16:55:29 30° NNW 16:55:29 30° NNW
SL-16 R/B 4.0 16:58:12 10° NW 17:01:04 25° NNW 17:01:04 25° NNW
NOSS 3-4 (A) 4.3 17:02:45 10° WNW 17:07:24 50° WNW 17:07:24 50° WNW
NOSS 3-4 (C) 4.3 17:02:52 10° WNW 17:07:30 50° WNW 17:07:30 50° WNW
H-2A R/B 4.5 17:29:24 16° NW 17:29:24 16° NW 17:30:37 10° NNW
ATLAS 2AS CENTAUR R/B 3.7 17:39:46 10° WNW 17:45:10 47° WNW 17:45:10 47° WNW
